Weather reports worldwide

Advertisment
Glenanne, United Kingdom (3923): temperature & dewpoint: 07.12.2018 09:00:00 - 13.12.2018 09:00:00 (GMT)Glenanne, United Kingdom (3923): temperature -100cm: 07.12.2018 09:00:00 - 13.12.2018 09:00:00 (GMT)Glenanne, United Kingdom (3923): wind speed & gusts: 07.12.2018 09:00:00 - 13.12.2018 09:00:00 (GMT)Glenanne, United Kingdom (3923): wind direction: 07.12.2018 09:00:00 - 13.12.2018 09:00:00 (GMT)Glenanne, United Kingdom (3923): reduced air pressure: 07.12.2018 09:00:00 - 13.12.2018 09:00:00 (GMT)Glenanne, United Kingdom (3923): visibility: 07.12.2018 09:00:00 - 13.12.2018 09:00:00 (GMT)Glenanne, United Kingdom (3923): precipitation: 07.12.2018 09:00:00 - 13.12.2018 09:00:00 (GMT)
Date & Time tt [°C] td [°C] tt -100cm [°C] ff [km/h] ff [kn] fx [km/h] fx [kn] dd ppp [hPa] vv [km] rr [mm]
13.12.2018 09:00:00 5,0 0,9 8,2 34 18 57 31 SSE 1009,6 24 0,0
13.12.2018 08:00:00 4,9 1,3 - 34 18 59 32 SSE 1008,9 22 0,0
13.12.2018 07:00:00 4,8 1,4 - 39 21 61 33 SSE 1008,3 28 0,6
13.12.2018 06:00:00 4,4 2,7 - 35 19 57 31 SSE 1008,0 10 1,0
13.12.2018 05:00:00 5,2 2,4 - 34 18 59 32 SSE 1007,7 21 0,0
13.12.2018 04:00:00 5,3 2,9 - 39 21 61 33 SSE 1007,5 24 0,2
13.12.2018 03:00:00 5,7 3,7 - 35 19 61 33 SSE 1007,3 20 0,2
13.12.2018 02:00:00 5,6 3,9 - 37 20 61 33 SSE 1007,6 13 0,2
13.12.2018 01:00:00 5,9 4,3 - 39 21 67 36 SSE 1007,4 13 0,0
13.12.2018 00:00:00 6,4 4,6 - 35 19 59 32 SSE 1007,5 19 0,0
12.12.2018 23:00:00 6,5 4,9 - 37 20 63 34 S 1007,8 11 0,0
12.12.2018 22:00:00 6,4 5,8 - 34 18 55 30 S 1008,1 10 0,6
12.12.2018 21:00:00 6,7 6,2 - 34 18 63 34 S 1008,5 5 0,4
12.12.2018 20:00:00 7,0 6,2 - 31 17 57 31 S 1008,5 12 0,0
12.12.2018 19:00:00 7,5 6,4 - 37 20 68 37 S 1008,8 15 0,2
12.12.2018 18:00:00 7,8 7,3 - 39 21 57 31 S 1009,2 6 0,8
12.12.2018 17:00:00 7,8 6,8 - 28 15 48 26 S 1009,8 50 0,0
12.12.2018 16:00:00 7,6 6,8 - 24 13 55 30 S 1010,1 30 0,0
12.12.2018 15:00:00 8,4 8,1 - 31 17 50 27 S 1010,3 8 1,2
12.12.2018 14:00:00 8,4 8,1 - 24 13 48 26 S 1011,0 7 1,4
12.12.2018 13:00:00 8,4 8,1 - 26 14 - - S 1012,0 12 0,2
12.12.2018 12:00:00 8,0 7,8 - 15 8 - - S 1012,9 6 0,2
12.12.2018 11:00:00 7,7 7,7 - 15 8 - - SSW 1013,9 7 0,0
12.12.2018 10:00:00 7,7 7,7 - 21 11 - - S 1014,0 4,1 0,0
12.12.2018 09:00:00 7,4 7,4 8,2 8 4 - - SSE 1013,9 4,2 0,0
12.12.2018 08:00:00 7,5 7,5 - 15 8 - - S 1013,9 0,6 0,0
12.12.2018 07:00:00 7,7 7,6 - 15 8 - - S 1014,3 5 0,0
12.12.2018 06:00:00 7,7 7,6 - 15 8 - - S 1014,1 20 0,2
12.12.2018 05:00:00 7,8 7,7 - 9 5 - - S 1014,2 9 0,4
12.12.2018 04:00:00 8,1 8,0 - 16 9 - - SSW 1014,7 6 0,2
12.12.2018 03:00:00 8,2 8,0 - 21 11 - - S 1014,6 9 0,2
12.12.2018 02:00:00 8,2 8,1 - 21 11 - - S 1014,5 6 0,0
12.12.2018 01:00:00 8,4 8,1 - 24 13 - - S 1014,2 11 0,2
12.12.2018 00:00:00 8,5 8,0 - 29 16 50 27 S 1013,8 11 1,4
11.12.2018 23:00:00 8,6 8,1 - 31 17 52 28 S 1013,9 8 1,0
11.12.2018 22:00:00 9,0 7,8 - 34 18 50 27 S 1013,6 13 0,0
11.12.2018 21:00:00 9,0 7,6 - 35 19 54 29 S 1013,4 13 0,0
11.12.2018 20:00:00 8,8 7,4 - 31 17 50 27 S 1013,7 16 0,0
11.12.2018 19:00:00 8,3 7,4 - 24 13 - - S 1013,8 15 0,0
11.12.2018 18:00:00 8,6 7,8 - 26 14 - - S 1014,1 18 0,0
11.12.2018 17:00:00 8,7 8,4 - 24 13 48 26 S 1014,1 10 0,0
11.12.2018 16:00:00 8,8 8,2 - 31 17 55 30 S 1014,2 14 0,0
11.12.2018 15:00:00 8,8 7,9 - 29 16 48 26 S 1014,8 13 0,0
11.12.2018 14:00:00 8,6 7,9 - 29 16 52 28 S 1015,3 16 0,0
11.12.2018 13:00:00 9,1 8,1 - 16 9 - - SSE 1016,2 20 0,0
11.12.2018 12:00:00 8,7 8,0 - 24 13 46 25 S 1017,2 20 0,0
11.12.2018 11:00:00 8,9 8,0 - 26 14 46 25 S 1017,4 27 0,0
11.12.2018 10:00:00 8,1 7,9 - 15 8 - - S 1017,6 8 0,0
11.12.2018 09:00:00 7,9 7,7 8,2 15 8 - - SSW 1018,2 7 0,0
11.12.2018 08:00:00 8,0 7,8 - 26 14 - - S 1018,0 12 0,0
11.12.2018 07:00:00 8,0 7,8 - 22 12 - - S 1018,2 10 0,0
11.12.2018 06:00:00 8,1 7,9 - 26 14 - - SSW 1018,5 13 0,0
11.12.2018 05:00:00 8,2 8,0 - 22 12 - - SSW 1018,9 12 0,0
11.12.2018 04:00:00 8,2 8,1 - 24 13 - - SSW 1019,7 9 0,0
11.12.2018 03:00:00 8,3 8,3 - 22 12 - - S 1020,2 7 0,0
11.12.2018 02:00:00 8,1 8,1 - 21 11 - - S 1020,7 4,3 0,0
11.12.2018 01:00:00 8,1 8,1 - 22 12 - - S 1021,4 6 0,0
11.12.2018 00:00:00 7,6 7,6 - 16 9 - - S 1022,1 0,3 0,0
10.12.2018 23:00:00 7,4 7,4 - 18 10 - - S 1022,5 0,4 0,0
10.12.2018 22:00:00 7,7 7,5 - 13 7 - - SSW 1023,0 3,4 0,0
10.12.2018 21:00:00 7,4 6,9 - 15 8 - - SSW 1023,2 15 0,0
10.12.2018 20:00:00 7,1 6,9 - 13 7 - - S 1023,7 13 0,0
10.12.2018 19:00:00 6,6 6,1 - 18 10 - - S 1024,0 7 0,0
10.12.2018 18:00:00 6,5 5,6 - 22 12 - - S 1023,9 10 0,0
10.12.2018 17:00:00 6,0 5,1 - 15 8 - - S 1024,5 18 0,0
10.12.2018 16:00:00 5,9 4,8 - 11 6 - - S 1024,8 22 0,0
10.12.2018 15:00:00 5,6 4,6 - 11 6 - - SSW 1025,4 17 0,0
10.12.2018 14:00:00 5,7 4,8 - 9 5 - - SSW 1025,5 21 0,0
10.12.2018 13:00:00 5,4 4,4 - 9 5 - - SSW 1025,8 21 0,0
10.12.2018 12:00:00 5,6 4,2 - 9 5 - - SW 1026,1 23 0,0
10.12.2018 11:00:00 5,0 3,9 - 8 4 - - WSW 1026,7 25 0,0
10.12.2018 10:00:00 5,3 3,6 - 9 5 - - W 1026,6 25 0,0
10.12.2018 09:00:00 5,6 3,6 8,2 9 5 - - W 1026,1 35 0,0
10.12.2018 08:00:00 5,2 3,5 - 11 6 - - WNW 1026,2 26 0,0
10.12.2018 07:00:00 5,0 3,7 - 11 6 - - WNW 1026,0 29 0,0
10.12.2018 06:00:00 4,9 3,6 - 15 8 - - WNW 1025,4 25 0,0
10.12.2018 05:00:00 4,4 3,3 - 13 7 - - WNW 1025,4 28 0,0
10.12.2018 04:00:00 4,4 3,5 - 11 6 - - W 1025,2 28 0,0
10.12.2018 03:00:00 4,8 3,7 - 13 7 - - WNW 1024,6 30 0,0
10.12.2018 02:00:00 5,1 4,0 - 13 7 - - W 1024,0 30 0,0
10.12.2018 01:00:00 5,4 4,3 - 16 9 - - WNW 1023,6 22 0,0
10.12.2018 00:00:00 5,4 4,4 - 13 7 - - WNW 1023,5 30 0,0
09.12.2018 23:00:00 5,2 4,1 - 15 8 - - WNW 1022,3 45 0,0
09.12.2018 22:00:00 5,4 4,3 - 15 8 - - NW 1021,7 45 0,0
09.12.2018 21:00:00 6,1 5,0 - 21 11 - - NW 1020,8 45 0,0
09.12.2018 20:00:00 5,8 4,9 - 16 9 - - NW 1020,1 45 0,2
09.12.2018 19:00:00 6,2 5,4 - 18 10 - - NW 1019,5 35 0,0
09.12.2018 18:00:00 6,3 5,2 - 21 11 - - WNW 1018,7 35 0,0
09.12.2018 17:00:00 5,9 4,6 - 16 9 - - NW 1017,8 35 0,0
09.12.2018 16:00:00 6,6 4,7 - 18 10 - - NW 1016,7 40 0,0
09.12.2018 15:00:00 6,8 5,3 - 11 6 - - WNW 1015,6 45 0,0
09.12.2018 14:00:00 6,4 5,1 - 15 8 - - NW 1015,0 50 0,0
09.12.2018 13:00:00 7,7 5,7 - 15 8 - - NW 1013,9 45 0,0
09.12.2018 12:00:00 7,6 5,9 - 16 9 - - NW 1013,0 30 0,0
09.12.2018 11:00:00 6,8 5,3 - 11 6 - - NW 1012,2 45 0,0
09.12.2018 10:00:00 5,9 4,7 - 13 7 - - NW 1011,1 50 0,0
09.12.2018 09:00:00 5,4 4,4 8,2 15 8 - - NW 1009,7 50 0,0
09.12.2018 08:00:00 6,2 5,3 - 22 12 - - NW 1007,5 50 0,0
09.12.2018 07:00:00 6,0 5,2 - 22 12 - - NNW 1005,3 50 0,2
09.12.2018 06:00:00 6,0 5,5 - 21 11 - - NNW 1003,1 50 0,0
09.12.2018 05:00:00 6,2 5,7 - 15 8 - - NW 1000,5 40 0,2
09.12.2018 04:00:00 6,0 5,3 - 16 9 - - NNW 998,7 30 0,0
09.12.2018 03:00:00 6,4 5,3 - 22 12 - - NNW 996,9 50 0,0
09.12.2018 02:00:00 6,5 5,7 - 18 10 - - NW 995,0 20 0,2
09.12.2018 01:00:00 6,3 5,1 - 16 9 - - WNW 993,9 17 0,2
09.12.2018 00:00:00 6,4 5,5 - 16 9 - - W 992,6 6 0,0
08.12.2018 23:00:00 6,3 5,3 - 18 10 - - W 992,5 12 0,0
08.12.2018 22:00:00 6,4 5,0 - 15 8 - - W 993,1 25 0,0
08.12.2018 21:00:00 6,3 5,1 - 18 10 50 27 W 992,7 20 0,4
08.12.2018 20:00:00 6,7 5,4 - 22 12 48 26 W 992,4 28 0,0
08.12.2018 19:00:00 6,6 5,1 - 24 13 57 31 W 991,9 30 1,0
08.12.2018 18:00:00 6,5 5,1 - 22 12 - - W 992,1 19 0,0
08.12.2018 17:00:00 6,7 5,3 - 21 11 - - W 992,4 6 0,6
08.12.2018 16:00:00 7,0 4,9 - 26 14 55 30 W 991,9 29 0,0
08.12.2018 15:00:00 7,3 5,3 - 26 14 55 30 W 992,1 35 0,0
08.12.2018 14:00:00 8,0 5,7 - 24 13 46 25 W 991,9 17 0,6
08.12.2018 13:00:00 7,9 6,5 - 31 17 63 34 W 993,1 4,1 1,4
08.12.2018 12:00:00 7,3 7,0 - 18 10 - - WSW 993,5 18 0,2
08.12.2018 11:00:00 5,9 5,6 - 21 11 - - SSW 995,1 2,5 1,2
08.12.2018 10:00:00 5,7 4,6 - 18 10 - - WSW 996,4 18 0,0
08.12.2018 09:00:00 5,7 4,4 8,4 16 9 48 26 WSW 998,1 18 0,0
08.12.2018 08:00:00 6,0 4,2 - 24 13 52 28 W 998,5 18 0,0
08.12.2018 07:00:00 6,5 5,5 - 22 12 52 28 WNW 999,0 10 0,4
08.12.2018 06:00:00 6,8 5,6 - 24 13 - - W 999,1 25 0,2
08.12.2018 05:00:00 6,9 5,7 - 21 11 48 26 WNW 998,9 3,8 0,2
08.12.2018 04:00:00 6,9 5,2 - 28 15 54 29 NW 998,4 45 0,4
08.12.2018 03:00:00 6,9 5,2 - 24 13 54 29 WNW 997,6 45 1,0
08.12.2018 02:00:00 7,2 6,1 - 29 16 65 35 NW 996,6 19 0,4
08.12.2018 01:00:00 7,6 6,3 - 26 14 67 36 WNW 995,2 19 1,4
08.12.2018 00:00:00 7,3 5,9 - 28 15 70 38 W 993,9 24 0,2
07.12.2018 23:00:00 6,9 5,7 - 26 14 54 29 W 993,7 12 1,4
07.12.2018 22:00:00 6,8 5,2 - 29 16 59 32 W 993,6 4,5 0,2
07.12.2018 21:00:00 6,6 4,8 - 28 15 59 32 W 993,3 14 0,0
07.12.2018 20:00:00 6,4 4,7 - 28 15 55 30 W 993,2 14 0,4
07.12.2018 19:00:00 6,0 4,1 - 29 16 57 31 W 993,4 12 0,0
07.12.2018 18:00:00 5,3 2,8 - 24 13 48 26 WSW 993,2 16 0,0
07.12.2018 17:00:00 5,2 2,7 - 26 14 50 27 W 993,4 18 0,0
07.12.2018 16:00:00 5,0 2,4 - 28 15 52 28 W 993,7 23 0,0
07.12.2018 15:00:00 5,2 2,2 - 22 12 52 28 W 993,8 25 0,0
07.12.2018 14:00:00 5,4 2,0 - 29 16 54 29 W 993,8 40 0,0
07.12.2018 13:00:00 5,0 1,8 - 26 14 50 27 W 994,1 40 0,4
07.12.2018 12:00:00 5,4 2,2 - 22 12 52 28 W 994,4 30 0,2
07.12.2018 11:00:00 4,1 2,1 - 24 13 - - W 995,1 4,9 0,8
07.12.2018 10:00:00 4,4 1,7 - 21 11 48 26 W 994,9 24 0,0
07.12.2018 09:00:00 4,3 1,5 8,2 26 14 48 26 WSW 994,4 30 0,0

tt = temperature
td = dewpoint
tt -100cm = temperature -100cm
ff = wind speed
fx = gusts
dd = wind direction
ppp = reduced air pressure
vv = visibility
rr = precipitation

Next stations